Tracking 30509 objects as of 21-May-2025
HD Live streaming from Space Station
objects crossing your sky now

SATCOM 3 DEB

Track SATCOM 3 DEB now!


NORAD ID: 49955
Int'l Code: 1979-101Z
Perigee: 8,393.2 km
Apogee: 35,582.6 km
Inclination: 7.8 °
Period: 792.1 minutes
Semi major axis: 28358 km
RCS: Unknown
Launch date: December 7, 1979
Source: United States (US)
Launch site: AIR FORCE EASTERN TEST RANGE (AFETR)

Note: This is SATELLITE DEBRIS
Your satellite tracking list
Your tracking list is empty




NASA's NSSDC Master Catalog

Two Line Element Set (TLE):
1 49955U 79101Z   25141.25888782 -.00000002  00000-0  00000-0 0  9994
2 49955   7.7504 140.0335 4793796 357.4367   0.7754  1.81789081 71502
Source of the keplerian elements: AFSPC